Time,TemperatureF,DewpointF,PressureIn,WindDirection,WindDirectionDegrees,WindSpeedMPH,WindSpeedGustMPH,Humidity,HourlyPrecipIn,Conditions,Clouds,dailyrainin,SoftwareType,DateUTC
2013-07-15 00:00:00,68.4,67.5,29.98,ESE,111,0.0,0.0,97,0.00,,---,0.00,VWS V14.00,2013-07-15 05:00:00,
2013-07-15 00:10:00,68.4,67.5,29.98,ESE,111,0.0,0.0,97,0.00,,---,0.00,VWS V14.00,2013-07-15 05:10:00,
2013-07-15 00:20:00,68.4,67.5,29.98,ESE,110,0.0,0.0,97,0.00,,---,0.00,VWS V14.00,2013-07-15 05:20:00,
2013-07-15 00:30:00,68.4,67.5,29.98,ESE,110,0.0,0.0,97,0.00,,---,0.00,VWS V14.00,2013-07-15 05:30:00,
2013-07-15 00:40:00,68.5,67.7,29.95,ESE,111,0.0,0.0,97,0.00,,---,0.00,VWS V14.00,2013-07-15 05:40:00,
2013-07-15 00:50:00,68.4,67.5,29.95,ESE,112,0.0,0.0,97,0.00,,---,0.00,VWS V14.00,2013-07-15 05:50:00,
2013-07-15 01:00:00,68.5,67.7,29.95,ESE,109,0.0,0.0,97,0.00,,---,0.00,VWS V14.00,2013-07-15 06:00:00,
2013-07-15 01:10:00,68.5,67.7,29.98,ESE,109,0.0,0.0,97,0.00,,---,0.00,VWS V14.00,2013-07-15 06:10:00,
2013-07-15 01:20:00,68.4,67.5,29.98,ESE,109,0.0,0.0,97,0.00,,---,0.00,VWS V14.00,2013-07-15 06:20:00,
2013-07-15 01:30:00,68.4,67.5,29.95,ESE,113,0.0,0.0,97,0.00,,---,0.00,VWS V14.00,2013-07-15 06:30:00,
2013-07-15 01:40:00,68.4,67.5,29.98,ESE,111,0.0,0.0,97,0.00,,---,0.00,VWS V14.00,2013-07-15 06:40:00,
2013-07-15 01:50:00,68.5,67.7,29.98,ESE,112,0.0,0.0,97,0.00,,---,0.00,VWS V14.00,2013-07-15 06:50:00,
2013-07-15 02:00:00,68.5,67.7,29.98,ESE,110,0.0,0.0,97,0.00,,---,0.00,VWS V14.00,2013-07-15 07:00:00,
2013-07-15 02:10:00,68.5,67.7,29.95,ESE,110,0.0,0.0,97,0.00,,---,0.00,VWS V14.00,2013-07-15 07:10:00,
2013-07-15 02:20:00,68.5,67.7,29.95,ESE,111,0.0,0.0,97,0.00,,---,0.00,VWS V14.00,2013-07-15 07:20:00,
2013-07-15 02:30:00,68.5,67.7,29.95,ESE,110,0.0,0.0,97,0.00,,---,0.00,VWS V14.00,2013-07-15 07:30:00,
2013-07-15 02:40:00,68.5,67.7,29.95,ESE,109,0.0,0.0,97,0.04,,---,0.04,VWS V14.00,2013-07-15 07:40:00,
2013-07-15 02:50:00,68.5,67.7,29.95,ESE,110,0.0,0.0,97,0.04,,---,0.04,VWS V14.00,2013-07-15 07:50:00,
2013-07-15 03:00:00,68.4,67.5,29.95,ESE,110,0.0,0.0,97,0.04,,---,0.04,VWS V14.00,2013-07-15 08:00:00,
2013-07-15 03:10:00,68.2,67.3,29.95,ESE,111,0.0,0.0,97,0.04,,---,0.04,VWS V14.00,2013-07-15 08:10:00,
2013-07-15 03:20:00,68.0,67.1,29.95,ESE,111,0.0,0.0,97,0.04,,---,0.04,VWS V14.00,2013-07-15 08:20:00,
2013-07-15 03:30:00,68.0,67.1,29.95,ESE,111,0.0,0.0,97,0.04,,---,0.04,VWS V14.00,2013-07-15 08:30:00,
2013-07-15 03:40:00,68.2,67.3,29.95,ESE,109,0.0,0.0,97,0.04,,---,0.04,VWS V14.00,2013-07-15 08:40:00,
2013-07-15 03:50:00,68.2,67.3,29.95,ESE,111,0.0,0.0,97,0.00,,---,0.04,VWS V14.00,2013-07-15 08:50:00,
2013-07-15 04:00:00,67.8,66.9,29.98,ESE,113,0.0,0.0,97,0.00,,---,0.04,VWS V14.00,2013-07-15 09:00:00,
2013-07-15 04:10:00,67.8,66.9,29.98,ESE,110,0.0,0.0,97,0.00,,---,0.04,VWS V14.00,2013-07-15 09:10:00,
2013-07-15 04:20:00,67.6,66.8,29.98,ESE,110,0.0,0.0,97,0.00,,---,0.04,VWS V14.00,2013-07-15 09:20:00,
2013-07-15 04:30:00,67.5,66.6,29.98,ESE,112,0.0,0.0,97,0.00,,---,0.04,VWS V14.00,2013-07-15 09:30:00,
2013-07-15 04:40:00,67.3,66.4,29.98,ESE,111,0.0,0.0,97,0.00,,---,0.04,VWS V14.00,2013-07-15 09:40:00,
2013-07-15 04:50:00,67.3,66.4,29.98,ESE,112,0.0,0.0,97,0.00,,---,0.04,VWS V14.00,2013-07-15 09:50:00,
2013-07-15 05:00:00,67.3,66.4,29.98,ESE,110,0.0,0.0,97,0.00,,---,0.04,VWS V14.00,2013-07-15 10:00:00,
2013-07-15 05:10:00,67.3,66.4,29.98,ESE,112,0.0,0.0,97,0.00,,---,0.04,VWS V14.00,2013-07-15 10:10:00,
2013-07-15 05:20:00,67.3,66.4,29.98,ESE,111,0.0,0.0,97,0.00,,---,0.04,VWS V14.00,2013-07-15 10:20:00,
2013-07-15 05:30:00,67.3,66.4,29.98,ESE,110,0.0,0.0,97,0.00,,---,0.04,VWS V14.00,2013-07-15 10:30:00,
2013-07-15 05:40:00,67.3,66.4,29.98,ESE,111,0.0,0.0,97,0.00,,---,0.04,VWS V14.00,2013-07-15 10:40:00,
2013-07-15 05:50:00,67.1,66.2,29.98,ESE,109,0.0,0.0,97,0.00,,---,0.04,VWS V14.00,2013-07-15 10:50:00,
2013-07-15 06:00:00,67.1,66.2,29.98,ESE,111,0.0,0.0,97,0.00,,---,0.04,VWS V14.00,2013-07-15 11:00:00,
2013-07-15 06:10:00,67.3,66.4,29.98,ESE,110,0.0,0.0,97,0.00,,---,0.04,VWS V14.00,2013-07-15 11:10:00,
2013-07-15 06:20:00,67.3,66.4,29.98,ESE,111,0.0,0.0,97,0.00,,---,0.04,VWS V14.00,2013-07-15 11:20:00,
2013-07-15 06:30:00,67.3,66.4,29.98,ESE,111,0.0,0.0,97,0.00,,---,0.04,VWS V14.00,2013-07-15 11:30:00,
2013-07-15 06:40:00,67.5,66.6,29.98,ESE,108,0.0,0.0,97,0.00,,---,0.04,VWS V14.00,2013-07-15 11:40:00,
2013-07-15 06:50:00,67.6,66.8,29.98,ESE,112,0.0,0.0,97,0.00,,---,0.04,VWS V14.00,2013-07-15 11:50:00,
2013-07-15 07:00:00,67.6,66.8,29.98,ESE,114,0.0,0.0,97,0.04,,---,0.08,VWS V14.00,2013-07-15 12:00:00,
2013-07-15 07:10:00,67.6,66.8,29.98,ESE,113,0.0,0.0,97,0.04,,---,0.08,VWS V14.00,2013-07-15 12:10:00,
2013-07-15 07:20:00,67.6,66.8,29.98,ESE,112,0.0,0.0,97,0.08,,---,0.12,VWS V14.00,2013-07-15 12:20:00,
2013-07-15 07:30:00,67.6,66.8,29.98,ESE,109,0.0,0.0,97,0.08,,---,0.12,VWS V14.00,2013-07-15 12:30:00,
2013-07-15 07:40:00,67.6,66.8,29.98,ESE,111,0.0,0.0,97,0.08,,---,0.12,VWS V14.00,2013-07-15 12:40:00,
2013-07-15 07:50:00,67.6,66.8,29.98,ESE,114,0.0,0.0,97,0.12,,---,0.16,VWS V14.00,2013-07-15 12:50:00,
2013-07-15 08:00:00,67.8,66.9,30.01,ESE,110,0.0,0.0,97,0.12,,---,0.16,VWS V14.00,2013-07-15 13:00:00,
2013-07-15 08:10:00,67.8,66.9,30.01,ESE,113,0.0,0.0,97,0.08,,---,0.16,VWS V14.00,2013-07-15 13:10:00,
2013-07-15 08:20:00,68.0,67.1,30.01,ESE,109,0.0,0.0,97,0.08,,---,0.16,VWS V14.00,2013-07-15 13:20:00,
2013-07-15 08:30:00,67.8,66.9,30.01,ESE,109,0.0,0.0,97,0.04,,---,0.16,VWS V14.00,2013-07-15 13:30:00,
2013-07-15 08:40:00,68.0,67.1,30.01,ESE,112,0.0,0.0,97,0.04,,---,0.16,VWS V14.00,2013-07-15 13:40:00,
2013-07-15 08:50:00,68.2,67.3,30.01,ESE,113,0.0,0.0,97,0.04,,---,0.16,VWS V14.00,2013-07-15 13:50:00,
2013-07-15 09:00:00,68.5,67.7,30.01,ESE,113,0.0,0.0,97,0.00,,---,0.16,VWS V14.00,2013-07-15 14:00:00,
2013-07-15 09:10:00,68.7,67.8,30.01,ESE,107,0.0,0.0,97,0.00,,---,0.16,VWS V14.00,2013-07-15 14:10:00,
2013-07-15 09:20:00,68.9,68.0,30.01,ESE,109,0.0,0.0,97,0.00,,---,0.16,VWS V14.00,2013-07-15 14:20:00,
2013-07-15 09:30:00,69.3,68.4,30.01,ESE,109,0.0,0.0,97,0.04,,---,0.20,VWS V14.00,2013-07-15 14:30:00,
2013-07-15 09:40:00,69.4,68.6,30.01,ENE,62,0.0,2.7,97,0.04,,---,0.20,VWS V14.00,2013-07-15 14:40:00,
2013-07-15 10:00:00,69.6,68.7,30.01,East,90,0.0,3.1,97,0.04,,---,0.20,VWS V14.00,2013-07-15 15:00:00,
2013-07-15 10:10:00,70.0,69.1,30.01,ENE,73,0.0,3.6,97,0.04,,---,0.20,VWS V14.00,2013-07-15 15:10:00,
2013-07-15 10:20:00,70.0,69.1,30.01,SE,145,0.0,3.1,97,0.04,,---,0.20,VWS V14.00,2013-07-15 15:20:00,
2013-07-15 10:40:00,70.0,69.1,30.01,SE,145,0.0,0.0,97,0.00,,---,0.20,VWS V14.00,2013-07-15 15:40:00,
2013-07-15 10:50:00,70.2,69.3,30.01,SE,145,0.0,0.0,97,0.00,,---,0.20,VWS V14.00,2013-07-15 15:50:00,
2013-07-15 11:00:00,70.3,69.4,30.01,SE,144,0.0,0.0,97,0.00,,---,0.20,VWS V14.00,2013-07-15 16:00:00,
2013-07-15 11:20:00,70.3,69.4,30.01,SE,144,0.0,0.0,97,0.00,,---,0.20,VWS V14.00,2013-07-15 16:20:00,
2013-07-15 11:40:00,70.2,69.3,30.04,SE,146,0.0,0.0,97,0.00,,---,0.20,VWS V14.00,2013-07-15 16:40:00,
2013-07-15 11:50:00,70.0,69.1,30.04,SE,145,0.0,0.0,97,0.00,,---,0.20,VWS V14.00,2013-07-15 16:50:00,
2013-07-15 12:10:00,70.0,69.1,30.04,SE,145,0.0,0.0,97,0.00,,---,0.20,VWS V14.00,2013-07-15 17:10:00,
2013-07-15 12:20:00,70.3,69.4,30.04,SE,146,0.0,0.0,97,0.00,,---,0.20,VWS V14.00,2013-07-15 17:20:00,
2013-07-15 12:40:00,70.2,69.3,30.04,SE,145,0.0,0.0,97,0.00,,---,0.20,VWS V14.00,2013-07-15 17:40:00,
2013-07-15 12:50:00,70.3,69.4,30.04,SE,145,0.0,0.0,97,0.00,,---,0.20,VWS V14.00,2013-07-15 17:50:00,
2013-07-15 13:10:00,70.3,69.4,30.04,NE,54,0.0,0.0,97,0.04,,---,0.24,VWS V14.00,2013-07-15 18:10:00,
2013-07-15 13:20:00,70.3,69.4,30.04,NE,56,0.0,0.0,97,0.08,,---,0.28,VWS V14.00,2013-07-15 18:20:00,
2013-07-15 13:40:00,70.2,69.3,30.04,NE,52,0.0,0.0,97,0.20,,---,0.39,VWS V14.00,2013-07-15 18:40:00,
2013-07-15 13:50:00,70.0,69.1,30.04,East,79,0.0,0.0,97,0.24,,---,0.43,VWS V14.00,2013-07-15 18:50:00,
2013-07-15 14:00:00,70.0,69.1,30.04,ENE,78,0.0,0.0,97,0.24,,---,0.43,VWS V14.00,2013-07-15 19:00:00,
2013-07-15 14:20:00,69.4,68.6,30.04,ENE,78,0.0,0.0,97,0.28,,---,0.51,VWS V14.00,2013-07-15 19:20:00,
2013-07-15 14:30:00,69.6,68.7,30.04,ENE,76,0.0,0.0,97,0.28,,---,0.55,VWS V14.00,2013-07-15 19:30:00,
2013-07-15 14:40:00,69.1,68.2,30.04,East,82,0.0,0.0,97,0.24,,---,0.55,VWS V14.00,2013-07-15 19:40:00,
2013-07-15 14:50:00,69.3,68.4,30.04,ENE,75,0.0,0.0,97,0.16,,---,0.55,VWS V14.00,2013-07-15 19:50:00,
2013-07-15 15:10:00,69.8,68.9,30.04,ENE,77,0.0,0.0,97,0.16,,---,0.59,VWS V14.00,2013-07-15 20:10:00,
2013-07-15 15:20:00,69.8,68.9,30.04,ENE,78,0.0,2.7,97,0.08,,---,0.59,VWS V14.00,2013-07-15 20:20:00,
2013-07-15 15:30:00,70.2,69.3,30.04,ENE,77,0.0,0.0,97,0.08,,---,0.59,VWS V14.00,2013-07-15 20:30:00,
2013-07-15 15:50:00,70.5,69.6,30.04,ENE,78,0.0,0.0,97,0.04,,---,0.59,VWS V14.00,2013-07-15 20:50:00,
2013-07-15 16:00:00,70.7,69.8,30.04,ENE,74,0.0,0.0,97,0.04,,---,0.59,VWS V14.00,2013-07-15 21:00:00,
2013-07-15 16:10:00,70.7,69.8,30.04,ENE,78,0.0,0.0,97,0.08,,---,0.63,VWS V14.00,2013-07-15 21:10:00,
2013-07-15 16:20:00,71.1,70.2,30.04,ENE,78,0.0,0.0,97,0.04,,---,0.63,VWS V14.00,2013-07-15 21:20:00,
2013-07-15 16:30:00,71.2,70.3,30.04,East,84,0.0,0.0,97,0.04,,---,0.63,VWS V14.00,2013-07-15 21:30:00,
2013-07-15 16:50:00,71.6,70.7,30.04,NE,55,0.0,3.1,97,0.04,,---,0.63,VWS V14.00,2013-07-15 21:50:00,
2013-07-15 17:00:00,71.8,70.9,30.04,ENE,60,0.0,0.0,97,0.04,,---,0.63,VWS V14.00,2013-07-15 22:00:00,
2013-07-15 17:10:00,72.0,71.1,30.01,East,86,0.0,3.6,97,0.04,,---,0.63,VWS V14.00,2013-07-15 22:10:00,
2013-07-15 17:20:00,72.3,71.4,30.01,NE,55,0.0,0.0,97,0.00,,---,0.63,VWS V14.00,2013-07-15 22:20:00,
2013-07-15 17:30:00,72.3,71.4,30.01,NE,41,0.0,3.6,97,0.00,,---,0.63,VWS V14.00,2013-07-15 22:30:00,
2013-07-15 17:40:00,72.3,71.4,30.01,ESE,110,0.0,3.1,97,0.00,,---,0.63,VWS V14.00,2013-07-15 22:40:00,
2013-07-15 18:00:00,72.5,71.6,30.01,ENE,58,0.0,0.0,97,0.00,,---,0.63,VWS V14.00,2013-07-15 23:00:00,
2013-07-15 18:10:00,72.5,71.6,30.01,East,93,0.0,0.0,97,0.00,,---,0.63,VWS V14.00,2013-07-15 23:10:00,
2013-07-15 18:20:00,72.5,71.6,30.01,NE,50,0.0,0.0,97,0.00,,---,0.63,VWS V14.00,2013-07-15 23:20:00,
2013-07-15 18:30:00,72.5,71.6,30.01,NE,36,0.0,3.1,97,0.00,,---,0.63,VWS V14.00,2013-07-15 23:30:00,
2013-07-15 18:40:00,72.3,71.4,30.01,ESE,107,0.0,0.0,97,0.00,,---,0.63,VWS V14.00,2013-07-15 23:40:00,
2013-07-15 18:50:00,72.1,71.2,30.01,NE,48,0.0,2.7,97,0.04,,---,0.67,VWS V14.00,2013-07-15 23:50:00,
2013-07-15 19:10:00,72.1,71.2,30.01,East,101,0.0,0.0,97,0.04,,---,0.67,VWS V14.00,2013-07-16 00:10:00,
2013-07-15 19:20:00,72.1,71.2,30.01,East,100,0.0,0.0,97,0.04,,---,0.67,VWS V14.00,2013-07-16 00:20:00,
2013-07-15 19:30:00,72.0,71.1,30.04,ESE,105,0.0,0.0,97,0.04,,---,0.67,VWS V14.00,2013-07-16 00:30:00,
2013-07-15 19:40:00,72.0,71.1,30.04,East,88,0.0,0.0,97,0.04,,---,0.67,VWS V14.00,2013-07-16 00:40:00,
2013-07-15 19:50:00,71.8,70.9,30.04,ENE,66,0.0,0.0,97,0.04,,---,0.67,VWS V14.00,2013-07-16 00:50:00,
2013-07-15 20:10:00,71.8,70.9,30.04,ENE,76,0.0,0.0,97,0.00,,---,0.67,VWS V14.00,2013-07-16 01:10:00,
2013-07-15 20:30:00,72.0,71.1,30.04,ENE,74,0.0,0.0,97,0.00,,---,0.67,VWS V14.00,2013-07-16 01:30:00,
2013-07-15 20:50:00,71.8,70.9,30.04,ENE,73,0.0,2.7,97,0.00,,---,0.67,VWS V14.00,2013-07-16 01:50:00,
2013-07-15 21:00:00,72.0,71.1,30.04,East,99,0.0,0.0,97,0.00,,---,0.67,VWS V14.00,2013-07-16 02:00:00,
2013-07-15 21:10:00,72.0,71.1,30.04,East,100,0.0,0.0,97,0.00,,---,0.67,VWS V14.00,2013-07-16 02:10:00,
2013-07-15 21:20:00,72.0,71.1,30.04,East,101,0.0,0.0,97,0.00,,---,0.67,VWS V14.00,2013-07-16 02:20:00,
2013-07-15 21:30:00,72.1,71.2,30.04,ESE,103,0.0,0.0,97,0.00,,---,0.67,VWS V14.00,2013-07-16 02:30:00,
2013-07-15 21:50:00,72.1,71.2,30.04,ENE,58,0.0,0.0,97,0.00,,---,0.67,VWS V14.00,2013-07-16 02:50:00,
2013-07-15 22:00:00,72.1,71.2,30.04,ENE,68,0.0,0.0,97,0.04,,---,0.71,VWS V14.00,2013-07-16 03:00:00,
2013-07-15 22:20:00,72.3,71.4,30.04,ENE,59,0.0,0.0,97,0.04,,---,0.71,VWS V14.00,2013-07-16 03:20:00,
2013-07-15 22:30:00,72.3,71.4,30.04,ENE,57,0.0,0.0,97,0.04,,---,0.71,VWS V14.00,2013-07-16 03:30:00,
2013-07-15 22:40:00,72.3,71.4,30.07,ENE,60,0.0,0.0,97,0.04,,---,0.71,VWS V14.00,2013-07-16 03:40:00,
2013-07-15 22:50:00,72.3,71.4,30.07,NE,51,0.0,0.0,97,0.04,,---,0.71,VWS V14.00,2013-07-16 03:50:00,
2013-07-15 23:00:00,72.5,71.6,30.07,East,86,0.0,0.0,97,0.04,,---,0.71,VWS V14.00,2013-07-16 04:00:00,
2013-07-15 23:10:00,72.5,71.6,30.07,ENE,58,0.0,3.1,97,0.00,,---,0.71,VWS V14.00,2013-07-16 04:10:00,
2013-07-15 23:20:00,72.5,71.6,30.07,NE,53,0.0,0.0,97,0.00,,---,0.71,VWS V14.00,2013-07-16 04:20:00,
2013-07-15 23:30:00,72.5,71.6,30.07,East,80,0.0,0.0,97,0.00,,---,0.71,VWS V14.00,2013-07-16 04:30:00,
2013-07-15 23:40:00,72.5,71.6,30.07,NE,53,0.0,0.0,97,0.00,,---,0.71,VWS V14.00,2013-07-16 04:40:00,
2013-07-15 23:50:00,72.3,71.4,30.07,East,80,0.0,2.7,97,0.00,,---,0.71,VWS V14.00,2013-07-16 04:50:00,